User: anonymous   Login
Location: Unspecified
(0.0000°N, 0.0000°E)
Time: 08:44:05
(UTC+00:00)
Language:

USA 247 - Orbit

View from above orbital plane
View from above orbital plane
View from above satellite
View from above satellite

Ground track
Ground track

The orbit data is extracted from the following two-line orbital elements,

1 39462U 13072A   18343.73761787 0.00000000  00000-0  00000-0 0    05
2 39462 122.9970 142.6151 0009000 186.5049 173.4951 13.41422163    05
Epoch (UTC): 09 December 2018 17:42:10
Eccentricity: 0.0009000
inclination: 122.9970°
perigee height: 1097 km
apogee height: 1111 km
right ascension of ascending node: 142.6151°
argument of perigee: 186.5049°
revolutions per day: 13.41422163
mean anomaly at epoch: 173.4951°
orbit number at epoch: 0

The dashed part of the orbit path shows where the satellite is in the earth's shadow,  

DLR